Home > Weather > Manizales > Past weeks

Flag for Colombia Weather for the Past 2 Weeks in Manizales, Colombia

Now
70 °F

Scattered clouds.


Feels Like: 70 °F
Forecast: 56 / 72 °F
Wind: 5 mph from West

Location: Pereira / Matecana

Current Time: Apr 29, 2016 at 11:16:53 AM

Latest Report: Apr 29, 2016 at 10:00 AM


Visibility: N/A

Pressure: 30.10 "Hg (23.48 "Hg at 2139m altitude)

Humidity: 88%

Dew Point: 66 °F

Location of ManizalesLocation

Historic Weather in Manizales — Graph

°F

Manizales Temperature Yesterday

Maximum temperature yesterday: 72 °F (at 3:00 PM)
Minimum temperature yesterday: 66 °F (at 6:00 AM)
Average temperature yesterday: 68 °F

High & Low Weather Summary for the Past Weeks

 TemperatureHumidityPressure
High88 °F (Apr 21, 4:00 PM)100% (Apr 24, 9:00 AM)30.16 "Hg (Apr 24, 9:00 AM)
Low64 °F (Apr 25, 6:00 AM)48% (Apr 14, 5:00 PM)29.88 "Hg (Apr 20, 4:00 PM)
Average74 °F78%30.03 "Hg
* Reported Apr 14 10:00 AM — Apr 29 10:00 AM, Manizales, Weather by CustomWeather, © 2016

Note: Actual official high and low records may vary slightly from our data, if they occured in-between our weather recording intervals... More about our weather records

Advertising

Manizales Weather History for the Previous 24 Hours

Scroll right to see more
 ConditionsComfort  
Time TempWeatherWind HumidityBarometerVisibility
10:00 AM
Fri, Apr 29
73 °FScattered clouds.3 mph83%30.10 "HgN/A
9:00 AM70 °FScattered clouds.5 mph88%30.10 "HgN/A
8:00 AM70 °FFog.2 mph88%30.10 "Hg6 mi
7:00 AM66 °FFog.5 mph94%30.09 "Hg4 mi
6:00 AM66 °FFog.3 mph100%30.07 "Hg4 mi
5:00 AM66 °FFog.3 mph94%30.06 "Hg5 mi
1:00 AM66 °FPartly cloudy.2 mph94%30.10 "Hg3 mi
11:30 PM
Thu, Apr 28
66 °FPartly cloudy.2 mph100%30.12 "Hg1 mi
11:00 PM66 °FDrizzle. Fog.2 mph94%30.12 "Hg5 mi
10:00 PM68 °FFog.5 mph94%30.12 "Hg6 mi
9:00 PM68 °FLight rain. Partly cloudy.3 mph94%30.11 "Hg5 mi
8:00 PM66 °FPartly cloudy.2 mph94%30.10 "Hg4 mi
7:00 PM68 °FScattered showers. Partly cloudy.2 mph94%30.07 "Hg5 mi
6:00 PM68 °FFog.3 mph94%30.06 "HgN/A
5:00 PM70 °FPartly sunny.6 mph83%30.03 "HgN/A
4:00 PM72 °FScattered showers. Broken clouds.7 mph78%30.00 "Hg6 mi
3:00 PM72 °FScattered showers. Broken clouds.6 mph83%30.03 "Hg6 mi
2:00 PM70 °FDrizzle. Broken clouds.2 mph88%30.06 "Hg4 mi
1:00 PM66 °FRain. Broken clouds.9 mph100%30.10 "Hg2 mi
12:00 PM66 °FThunderstorms. Partly sunny.6 mph94%30.13 "Hg2 mi
11:00 AM68 °FBroken clouds.2 mph94%30.12 "Hg3 mi
Weather by CustomWeather, © 2016

See weather overviewHow to use our weather pages